Other Public Products
Issued by NWS Grand Forks, ND

Home | Current Version | Previous Version | Graphics & Text | Print | Product List | Glossary On
Versions: 1 2 3 4 5 6 7 8 9 10 11 12 13 14 15 16 17 18 19 20 21 22 23 24 25 26 27 28 29 30 31 32 33 34 35 36 37 38 39 40 41 42 43 44 45 46 47 48 49 50
000
FPUS83 KFGF 270010
OPUFGF
PRAIRIE TO PINES WEATHER ROUNDUP
NATIONAL WEATHER SERVICE EASTERN NORTH DAKOTA/GRAND FORKS ND
600 PM CST WED NOV 26 2014

 **SATELLITE DATA USED TO AUGMENT SKY COVER AT AUTOMATED STATIONS**
 *****  WEATHER ACROSS EASTERN NORTH DAKOTA  *****

CITY           SKY/WX    TMP DP  RH WIND       PRES   REMARKS
GRAND FORKS    CLEAR     -7 -12  79 N5        30.53R WCI -18
6HR MIN TEMP:  -7; 6HR MAX TEMP:   4;

GRAND FORKS AF CLEAR     -8 -13  79 N7        30.52R WCI -23
GRAND CITY NWS   N/A     -4 N/A N/A VRB3        N/A
BUXTON         NOT AVBL
DEVILS LAKE    PTCLDY    -2 -17  50 N5        30.44R WCI -12
6HR MIN TEMP:  -2; 6HR MAX TEMP:   1;

FARGO          CLEAR     -1  -8  72 N9        30.50R WCI -16
6HR MIN TEMP:  -1; 6HR MAX TEMP:   6;

WAHPETON ARPT  CLEAR      1  -6  71 N12       30.48R WCI -15
$$

 *****  WEATHER ACROSS CENTRAL AND WESTERN NORTH DAKOTA  *****

CITY           SKY/WX    TMP DP  RH WIND       PRES   REMARKS
JAMESTOWN      PTCLDY    -9 -13  83 NW9       30.45R WCI -26
6HR MIN TEMP:  -9; 6HR MAX TEMP:   4;

BISMARCK       PTCLDY     1  -3  83 NE5       30.45R WCI  -9
6HR MIN TEMP:  -2; 6HR MAX TEMP:  11; 6HR PCP: TRACE;

MINOT          CLOUDY    -6 -10  83 SW6       30.44R WCI -19
6HR MIN TEMP:  -8; 6HR MAX TEMP:   5;

MINOT AFB      CLOUDY   -19 -24  77 W6        30.45R WCI -34
6HR MIN TEMP: -19; 6HR MAX TEMP:   3; 6HR PCP: TRACE;

GARRISON         N/A     -2  -7  79 E3        30.42R
6HR MIN TEMP:  -2; 6HR MAX TEMP:   8;

WILLISTON      CLOUDY    10   3  73 N7        30.39S WCI  -1
6HR MIN TEMP:   8; 6HR MAX TEMP:  14;

DICKINSON      CLEAR     12   8  84 E7        30.30R WCI   1
6HR MIN TEMP:  12; 6HR MAX TEMP:  22;

HETTINGER      PTCLDY    15  11  83 E3        30.32R
6HR MIN TEMP:  14; 6HR MAX TEMP:  24; 6HR PCP: TRACE;

$$

 *****  OTHER OBSERVATIONS NORTHEAST NORTH DAKOTA  *****

CITY           SKY/WX    TMP DP  RH WIND       PRES   REMARKS
WALHALLA         N/A     -8 -11  84 W3        30.53R
LANGDON        FAIR      -8 -13  77 NW7       30.43S WCI -22
CAVALIER       FAIR      -2  -9  71 N3        30.53R
GRAFTON        FAIR      -4  -9  77 N5        30.54R WCI -15
CANDO          FAIR      -6 -11  77 N3        30.47R
FORT TOTTEN      N/A     -2 -10  69 N2        29.95S
ROLLA          FAIR      -8 -13  77 CALM      30.43R
RUGBY          FAIR      -4  -9  77 NW10      30.45S WCI -21
 ***** THE ABOVE OBSERVATIONS ARE NON NWS ARE NOT QUALITY
        CONTROLLED AND MAY MIS-REPORT RAIN FOR SNOW...
$$

 *****  OTHER OBSERVATIONS SOUTHEAST NORTH DAKOTA *****

CITY           SKY/WX    TMP DP  RH WIND       PRES   REMARKS
COOPERSTOWN    NOT AVBL
VALLEY CITY    FAIR      -2  -9  71 NW5       30.46R WCI -12
OAKES            N/A      0  -8  71 N7        30.46R WCI -13
GWINNER        CLEAR      1  -8  66 N6        30.48R WCI -10
SHEYENNE NWR     N/A     -3 -11  68 N3        29.95S
BUFFALO        NOT AVBL
WYNDMERE         N/A      0  -8  71 N8          N/A  WCI -15
 ***** THE ABOVE OBSERVATIONS ARE NON NWS ARE NOT QUALITY
       CONTROLLED AND MAY MIS-REPORT RAIN FOR SNOW...
$$

  *****  WEATHER ACROSS NORTHERN MINNESOTA  *****

CITY           SKY/WX    TMP DP  RH WIND       PRES   REMARKS
FLAG ISLAND    CLEAR     -6 -11  77 NW8       30.44R WCI -21
WARROAD        CLEAR     -4  -9  77 NW8       30.45R WCI -19
ROSEAU         CLEAR     -4  -9  77 NW7       30.46R WCI -18
HALLOCK        CLEAR     -6 -13  71 CALM      30.52R
THF RVR FALLS  CLEAR     -4  -9  77 NW13      30.46R WCI -23
6HR MIN TEMP:  -4; 6HR MAX TEMP:   1;

HALSTAD          N/A     -5  -9  81 N7          N/A  WCI -19
FOSSTON        CLEAR     -9 -15  77 CALM      30.44R
BAUDETTE       CLEAR     -4 -10  75 N5        30.41R WCI -15
6HR MIN TEMP:  -4; 6HR MAX TEMP:   0;

WASKISH        CLEAR     -2  -8  78 CALM      30.41R
CROOKSTON      CLEAR     -2  -8  78 N9        30.52R WCI -18
$$
  *****  WEATHER ACROSS CENTRAL AND WEST MINNESOTA  *****

CITY           SKY/WX    TMP DP  RH WIND       PRES   REMARKS
BEMIDJI        CLEAR     -5 -11  75 NW7       30.38S WCI -19
PARK RAPIDS    CLEAR      1  -8  66 NW9       30.36R WCI -14
6HR MIN TEMP:   1; 6HR MAX TEMP:  14;

WADENA         CLEAR      3  -6  66 NW12G18   30.36R WCI -13
DETROIT LAKES  CLEAR      0  -6  78 NW8       30.42R WCI -15
MOORHEAD       CLEAR     -2  -6  84 N7        30.50R WCI -16
FERGUS FALLS   CLEAR      0  -8  71 N16       30.48R WCI -21
ELBOW LAKE     FAIR       2  -3  80 NW17      30.41R WCI -18
MORRIS MN      CLOUDY     5   0  78 NW20G26   30.40R WCI -15
STAPLES        PTCLDY     9  -8  47 NW8       30.35R WCI  -4
WHEATON        PTCLDY     1  -6  71 NW9G18    30.48R WCI -14
$$
  *****  WEATHER ELSEWHERE ACROSS MINNESOTA  *****

CITY           SKY/WX    TMP DP  RH WIND       PRES   REMARKS
DULUTH         PTCLDY    11   2  67 NW10      30.26R WCI  -3
6HR MIN TEMP:  11; 6HR MAX TEMP:  19; 6HR PCP: TRACE;

INTRNTL FALLS  CLEAR     -3  -8  79 NW7       30.38R WCI -16
6HR MIN TEMP:  -3; 6HR MAX TEMP:   7;

ELY            CLEAR      3  -4  72 NW3       30.30R
CLOQUET        PTCLDY    12   1  62 NW10      30.28R WCI  -1
BRAINERD       PTCLDY     9  -7  48 N13       30.34R WCI  -7
6HR MIN TEMP:   9; 6HR MAX TEMP:  18;

HIBBING        CLEAR      7  -6  55 N12       30.31R WCI  -8
6HR MIN TEMP:   7; 6HR MAX TEMP:  17; 6HR PCP: TRACE;

ALEXANDRIA     MOCLDY     8  -4  58 NW16      30.35R WCI -10
6HR MIN TEMP:   8; 6HR MAX TEMP:  19;

SAINT CLOUD    CLOUDY    19   7  59 N12       30.31R WCI   7
6HR MIN TEMP:  19; 6HR MAX TEMP:  25;

MINNEAPOLIS    CLOUDY    23  16  74 NW10      30.29R WCI  12
6HR MIN TEMP:  22; 6HR MAX TEMP:  26; 6HR PCP: TRACE;

$$

  *****  WEATHER ACROSS SOUTH DAKOTA  *****

CITY           SKY/WX    TMP DP  RH WIND       PRES   REMARKS
SIOUX FALLS    CLOUDY    14   8  77 NW10      30.36R WCI   1
6HR MIN TEMP:  13; 6HR MAX TEMP:  21; 6HR PCP: TRACE;

BROOKINGS      NOT AVBL
WATERTOWN      CLOUDY     6  -2  69 N12       30.37R WCI  -9
6HR MIN TEMP:   6; 6HR MAX TEMP:  12;

HURON          CLOUDY    10   0  63 N10       30.45R WCI  -4
6HR MIN TEMP:   8; 6HR MAX TEMP:  14;

SISSETON         N/A      3  -3  76 N13       30.45R WCI -14
ABERDEEN       CLOUDY     6  -2  69 N8        30.47R WCI  -7
6HR MIN TEMP:   6; 6HR MAX TEMP:  10;

MITCHELL       CLOUDY    13   5  70 N15       30.44R WCI  -3
PIERRE         CLOUDY    17   9  70 NE10      30.40R WCI   5
6HR MIN TEMP:  17; 6HR MAX TEMP:  23;

MOBRIDGE       CLOUDY    12   6  77 NE3       30.38R
RAPID CITY     CLOUDY    30  24  78 CALM      30.26S
6HR MIN TEMP:  27; 6HR MAX TEMP:  31;

$$

  *****  SOME WEATHER IN NEARBY STATES *****

CITY           SKY/WX    TMP DP  RH WIND       PRES   REMARKS
GLASGOW MT     CLOUDY    19  13  77 SE16      30.29R WCI   4
6HR MIN TEMP:  19; 6HR MAX TEMP:  24;

GREAT FALLS MT CLOUDY    29  28  96 E8        30.07F WCI  21
6HR MIN TEMP:  29; 6HR MAX TEMP:  30; 6HR PCP:  0.07;

CHEYENNE WY    CLOUDY    31  24  75 S7        30.17R WCI  24
6HR MIN TEMP:  25; 6HR MAX TEMP:  34; 6HR PCP: TRACE;

SCOTTSBLUFF NE LGT SNOW  29  27  92 SE3       30.27R FOG
6HR MIN TEMP:  29; 6HR MAX TEMP:  31; 6HR PCP:  0.09;

OMAHA NE       CLOUDY    26  20  77 N23G32    30.33R WCI  11
6HR MIN TEMP:  26; 6HR MAX TEMP:  31; 6HR PCP: TRACE;

DES MOINES IA  LGT SNOW  31  27  85 N14       30.19R FOG     WCI  21
6HR MIN TEMP:  31; 6HR MAX TEMP:  32; 6HR PCP:  0.01;

DAVENPORT IA   CLOUDY    27  21  78 NE7       30.16R WCI  19
6HR MIN TEMP:  26; 6HR MAX TEMP:  28;

CHICAGO IL     CLOUDY    29  21  72 CALM      30.12R
6HR MIN TEMP:  27; 6HR MAX TEMP:  29;

EAU CLAIRE WI  CLOUDY    25  18  74 NW7       30.22S WCI  17
6HR MIN TEMP:  23; 6HR MAX TEMP:  26; 6HR PCP: TRACE;

LA CROSSE WI   LGT SNOW  26  22  84 N10       30.23R FOG     WCI  16
6HR MIN TEMP:  26; 6HR MAX TEMP:  29; 6HR PCP:  0.01;

$$

  *****  SOME NATIONAL WEATHER *****

CITY           SKY/WX    TMP DP  RH WIND       PRES   REMARKS
LA GUARDIA NY  LGT SNOW  36  34  92 N21G31    29.77F FOG


USA.gov is the U.S. government's official web portal to all federal, state and local government web resources and services.